This demonstration page uses our WeatherBlox Daily Observations layout. Learn more.

Left ArrowRight Arrow

36.19886, -115.1175

Hourly Observations for May 30, 2021

Temp ( °F °C ) Dew Point ( °F °C ) Humidity (%) Winds ( mph kmh ) Pressure ( in mb ) Visibility ( mi km ) Precip ( " mm )
12:53 am 00:53 Clear 78 25.6 26 -3.3 15 15 NNW 8 13 29.71 1006 10 16 N/A
1:53 am 01:53 Clear 79 26.1 23 -5 12 12 NW 9 15 29.72 1006 10 16 N/A
2:53 am 02:53 Clear 79 26.1 22 -5.6 12 12 NW 8 13 29.72 1006 10 16 N/A
3:53 am 03:53 Clear 78 25.6 22 -5.6 12 12 NNW 7 11 29.72 1007 10 16 N/A
4:53 am 04:53 Clear 75 23.9 23 -5 14 14 NNW 7 11 29.74 1007 10 16 N/A
5:53 am 05:53 Sunny 78 25.6 22 -5.6 12 12 NNW 7 11 29.75 1008 10 16 N/A
6:53 am 06:53 Sunny 76 24.4 25 -3.9 15 15 N N/A 29.77 1008 10 16 N/A
7:53 am 07:53 Sunny 82 27.8 25 -3.9 12 12 N N/A 29.78 1009 10 16 N/A
8:53 am 08:53 Sunny 86 30 29 -1.7 13 13 N 6 9 29.79 1009 10 16 N/A
9:53 am 09:53 Sunny 89 31.7 28 -2.2 11 11 VRB 3 6 29.78 1009 10 16 N/A
10:53 am 10:53 Sunny 92 33.3 27 -2.8 10 10 NNE 6 9 29.78 1009 10 16 N/A
11:53 am 11:53 Sunny 93 33.9 26 -3.3 9 9 undefined N/A 29.77 1008 10 16 N/A
12:53 pm 12:53 Sunny 94 34.4 25 -3.9 8 8 SSE 6 9 29.75 1008 10 16 N/A
1:53 pm 13:53 Sunny 96 35.6 23 -5 7 7 SE 9 15 29.72 1007 10 16 N/A
2:53 pm 14:53 Sunny 97 36.1 23 -5 7 7 SE 9 15 29.70 1006 10 16 N/A
3:53 pm 15:53 Sunny 98 36.7 23 -5 7 7 ENE 10 17 29.68 1005 10 16 N/A
4:53 pm 16:53 Sunny 97 36.1 24 -4.4 7 7 S 6 9 29.67 1005 10 16 N/A
5:53 pm 17:53 Sunny 97 36.1 24 -4.4 7 7 N N/A 29.66 1005 10 16 N/A
6:53 pm 18:53 Sunny 96 35.6 23 -5 7 7 N N/A 29.68 1005 10 16 N/A
7:53 pm 19:53 Clear 96 35.6 24 -4.4 7 7 N 7 11 29.69 1006 10 16 N/A
8:53 pm 20:53 Clear 94 34.4 25 -3.9 8 8 NNE 7 11 29.71 1006 10 16 N/A
9:53 pm 21:53 Clear 91 32.8 28 -2.2 10 10 NNW 6 9 29.72 1007 10 16 N/A
10:53 pm 22:53 Clear 88 31.1 29 -1.7 12 12 W 7 11 29.73 1007 10 16 N/A
11:53 pm 23:53 Clear 86 30 30 -1.1 13 13 NW 8 13 29.74 1007 10 16 N/A

Powered by AerisWeather